This is the latest recevied weather packets stored in our database for station/object BARLOW-WX. If no packets are shown the sender has not sent any weather packets the latest 10 day(s).
| Time | Temp. | Humidity | Pressure | Rain* | Wind** | Luminosity | Snow |
|---|---|---|---|---|---|---|---|
| 1777245382 | 18.33° C | 41% | 990.3 hPa | 0 mm | - | - | - |
| 1777244492 | 18.89° C | 41% | 990.3 hPa | 0 mm | - | - | - |
| 1777243581 | 18.89° C | 40% | 989.4 hPa | 0 mm | - | - | - |
| 1777242688 | 18.89° C | 40% | 990.7 hPa | 0 mm | - | - | - |
| 1777241778 | 19.44° C | 40% | 990.7 hPa | 0 mm | - | - | - |
| 1777240897 | 19.44° C | 40% | 990.7 hPa | 0 mm | - | - | - |
| 1777239975 | 19.44° C | 42% | 989.7 hPa | 0 mm | - | - | - |
| 1777239089 | 19.44° C | 43% | 990.7 hPa | 0 mm | - | - | - |
| 1777238175 | 19.44° C | 43% | 990.7 hPa | 0 mm | - | - | - |
| 1777237295 | 19.44° C | 43% | 990.7 hPa | 0 mm | - | - | - |
| 1777236377 | 19.44° C | 48% | 990.2 hPa | 0 mm | - | - | - |
| 1777235489 | 19.44° C | 48% | 990.3 hPa | 0 mm | - | - | - |
| 1777234577 | 19.44° C | 48% | 990.3 hPa | 0 mm | - | - | - |
| 1777233693 | 18.89° C | 48% | 990.3 hPa | 0 mm | - | - | - |
| 1777232777 | 18.89° C | 50% | 990.6 hPa | 0 mm | - | - | - |
| 1777231891 | 18.89° C | 50% | 990.6 hPa | 0 mm | - | - | - |
| 1777230979 | 18.89° C | 50% | 990.6 hPa | 0 mm | - | - | - |
| 1777230097 | 18.89° C | 50% | 990.6 hPa | 0 mm | - | - | - |
| 1777229177 | 18.33° C | 52% | 991 hPa | 0 mm | - | - | - |
| 1777228290 | 18.33° C | 55% | 992 hPa | 0 mm | - | - | - |
| 1777227377 | 17.22° C | 55% | 991.9 hPa | 0 mm | - | - | - |
| 1777226499 | 16.67° C | 55% | 991.9 hPa | 0 mm | - | - | - |
| 1777225576 | 16.11° C | 63% | 991.7 hPa | 0 mm | - | - | - |
| 1777224687 | 15.56° C | 67% | 992 hPa | 0 mm | - | - | - |
| 1777223775 | 14.44° C | 67% | 991.9 hPa | 0 mm | - | - | - |
* Rain latest hour (hover to see other rain measurements)
** Current wind speed in m/s (hover to see current wind gust speed)